Погода Усть-Щугор

Погода Усть-Щугор : погода сейчас, прогноз погоды и архив. Всё, что Вы хотите узнать о погоде Усть-Щугор!

Поиск расширенной информации на нашем сайте:

Другие новости

Новости СМИ2

Главная страница сайта

Новости сайта

03.07.2017

Напоминаем, что на нашем специализированном сайте Метеоцентр.Азия вы можете получить высокодетализированные автоматические прогнозы погоды по пунктам России, СНГ и мира в авиационном формате (включающие направление и скорость ветра, видимость, явления погоды, количество и форму облачности, нижнюю и верхнюю границу облачности).


Погода Усть-Щугор - сегодня

Время (UTC), дата Ветер
(°,м/с) 
Видим.   Явления Облачность Т
(°С)
Тd
(°С)
f(%) Тe
(°С)
Pmin
(гПа)
dP
(гПа)
Po
(мм)
O2
(г/м3)
Тmin Tmax R s Состояние
почвы
09 09.02.18 200 (Ю) 20000 м  {снег}  8/8 600 м 
[Sc diur, vesp]
-9.5 -11.9 83 -13  1036.7  0.1  770  323           
12 09.02.18 200 (Ю) 20000 м  {снег}  9/0 верхняя 
[Cs]
-11.4 -13.1 87 -15  1036.8  0.1  770  325           
15 09.02.18 210 (ЮЗ) 10 км    10/0 верхняя 
[Cs]
-11.9 -13.3 89 -15  1037.3  0.5  771  326    -8.2  0.2     
06 10.02.18 210 (ЮЗ) 4000 м  слаб. снег  10/0 средняя 
[Ac As]
-15.9 -17.5 87 -18  1038.7  0.3  772  332           
12 10.02.18 250 (З) 20000 м  {снег}  10/3 300 м средняя 
[Frnb|Ac As]
-14.2 -16 86 -16  1038.6  0.1  772  329           
06 11.02.18 тихо ()   20000 м    10/0 средняя, верхняя 
[Ac As|Cc]
-26.6 -29.3 78 -27  1035.9  -0.3  769  345           
09 11.02.18 300 (СЗ) 20000 м    10/0 средняя, верхняя 
[Ac trans|Cs]
-17 -19.2 83 -17  1035.3  -0.3  769  332           
12 11.02.18 350 (С) 20000 м    8/0 средняя, верхняя 
[Ac lent|Cc]
-19.3 -21.3 84 -20  1034.2  -1.1  768  335           
06 12.02.18 220 (ЮЗ) 20000 м    10/0 средняя 
[Ac As]
-15.4 -17.1 87 -15  1031  -0.3  766  328           
09 12.02.18 230 (ЮЗ) 20000 м    6/1 1000 м средняя 
[Sc|Ac As]
-10.3 -13.8 75 -12  1030.8  766  322           
12 12.02.18 200 (Ю) 20000 м    10/0 средняя 
[Ac As]
-9.8 -12.4 81 -12  1029.6  765  321           
06 13.02.18 200 (Ю) 20000 м    10/0 средняя 
[Ac As]
-10.3 -12.3 85 -14  1027.9  -0.5  764  321           
09 13.02.18 210 (ЮЗ) 20000 м    10/0 средняя 
[Ac As]
-9 -11.8 80 -13  1027.7  0.1  764  319           
06 14.02.18 240 (ЮЗ) 4000 м  слаб. снег  10/4 300 м средняя 
[Frnb|As op]
-7 -8.1 92 -10  1027  0.4  763  316           
09 14.02.18 240 (ЮЗ) 4000 м  слаб. снег  10/0 средняя 
[As op]
-5.9 -7.6 88 -7  1027.5  0.6  764  315           
09 16.02.18 220 (ЮЗ) 10 км  снежные кристаллы  10/6 300 м средняя, верхняя 
[Frnb|As trans|Cc]
-12.8 -15 84 -18  1031.3  -0.5  766  325           
12 17.02.18 210 (ЮЗ) 4000 м  слаб. снег  10/0 средняя 
[Ac As]
-11 -13.3 83 -16  1024.7  -0.8  761  321           
09 18.02.18 200 (Ю) 4000 м  слаб. снег  10/0 средняя 
[Ac As]
-9.9 -11.7 87 -14  1022.9  760  319           
12 18.02.18 210 (ЮЗ) 4000 м  слаб. снег  10/0 средняя 
[Ac As]
-9.1 -10.9 87 -13  1022.7  0.1  760  318           
09 19.02.18 тихо ()   20000 м    10/0 средняя 
[Ac As]
-9 -11.2 84 -9  1024.4  0.4  761  318           
12 19.02.18 020 (С) 20000 м    10/8 1320 м кучево-дожд., средняя 
[Cb cap|Ac As]
-8.7 -10.4 87 -8  1023.9  -0.5  761  318           
09 20.02.18 020 (С) 20000 м  {снег}  10/0 средняя 
[Ac As]
-19.3 -22.2 78 -24  1021.8  0.1  759  331           
12 20.02.18 030 (СВ) 20000 м  {снег}  10/0 средняя 
[Ac As]
-18.6 -21.2 80 -23  1021.4  -0.4  759  330           
09 21.02.18 030 (СВ) 20000 м    10/0 средняя 
[Ac As]
-19.7 -23.2 74 -24  1019.3  -0.3  757  330           
12 21.02.18 020 (С) 20000 м  снежные кристаллы  10/0 средняя 
[Ac As]
-18 -21 77 -22  1018.7  -0.5  757  328           
Время (UTC), дата Ветер
(°,м/с) 
Видим.   Явления Облачность Т
(°С)
Тd
(°С)
f(%) Тe
(°С)
Pmin
(гПа)
dP
(гПа)
Po
(мм)
O2
(г/м3)
Тmin Tmax R s Состояние
почвы

Для получения пояснительной информации подведите курсор к названию столбца.

ПОГОДА Усть-Щугор - архив

Всё, что Вы хотите узнать о погоде Усть-Щугор - удобно и подробно!

Выберите нужную дату (начиная с 1 января 2015* года) и нажмите кнопку "Найти".
Будут отображены архивные сводки погоды по пункту Усть-Щугор, начиная с указанной даты.


Отображать данные в формате CSV (для использования в таблицах Excel)


Внимание! Наш архив погоды предназначен исключительно для личного некоммерческого использования в познавательных целях. Если Вам необходимы официальные справки о состоянии погоды (для производственных, юридических, коммерческих и т.п. целей), обращайтесь в органы Росгидромета.

*Примечание: данная дата относится к архиву по метеостанциям СССР (Россия, СНГ, Балтия).
Архив по метеостанциям Зарубежной Европы и Азии (кроме Китая) хранится 10 дней, по другим регионам земного шара (Китай, Африка, Америка, Австралия, Океания) - 1 день.

Усть-Щугор - район местоположения метеостанции


Название, широта, долгота, высота метеостанции:
Усть-Щугор 64.3°ш. 57.6°д. 75 м над ур. моря [Российская Федерация]

Дополнительная информация

В oтличие oт бoльшинства пoгoдных сайтoв мы публикуем пoдрoбную метеoинфoрмацию в детальнoм прoфессиoнальнoм фoрмате.

Характеристики температуры и влажнoсти вoздуха измеряются на высoте 2 м в тени вдали oт зданий и деревьев.
Скoрoсть ветра измеряется на высoте 10 м (на урoвне рoста челoвека скoрoсть ветра ниже в 1.5-2 раза). Если метеoстанция нахoдится в гoрoде или в лесу, тo скoрoсть ветра занижена на 2-4 м/с пo сравнению с oткрытым местoм. Скoрoсть ветра над акватoриями крупных рек и oзёр, а также на вершинах хoлмoв на 2-5 м/с выше, чем в oбычных услoвиях.
Атмoсфернoе давление в разных тoчках местнoсти мoжет значительнo oтличаться oт давления на метеoстанции, в зависимoсти oт услoвий рельефа (при пoдъёме на 10 м давление пoнижается примернo на 1 мм рт.ст.).